Flag for Romania Weather past 2 weeks in Constanța, Romania

Now
65 °F

Overcast.


Feels Like: 65 °F
Forecast: 56 / 63 °F
Wind: 2 mph from East

Location: Constanta

Current Time: Oct 2, 2014 at 11:43:57 AM

Latest Report: Oct 2, 2014 at 11:00 AM


Visibility: 6 mi

Pressure: 30.37 "Hg

Humidity: 53%

Dew point: 48 °F

Location of ConstanțaLocation

Historic Weather in Constanța — Graph

°F

Constanța temperature yesterday

Maximum temperature yesterday: 71 °F (at 1:00 PM)
Minimum temperature yesterday: 56 °F (at 7:00 AM)
Average temperature yesterday: 64 °F

Past Weeks' High & Low Weather Summary

 TemperatureHumidityPressure
High76 °F (Sep 30, 4:00 PM)98% (Sep 23, 5:00 PM)30.43 "Hg (Sep 23, 5:00 PM)
Low50 °F (Sep 24, 7:00 AM)37% (Sep 19, 2:00 PM)29.61 "Hg (Sep 23, 6:00 AM)
Average63 °F69%30.07 "Hg
* Reported Sep 17 10:00 AM — Oct 2 10:00 AM, Constanța, Weather by CustomWeather, © 2014

Note: Actual official high and low records may vary slightly from our data, if they occured in-between our weather recording intervals... More about our weather records

Advertising

Constanța weather history for previous 24 hours

 ConditionsComfort  
Time TempWeatherWind HumidityBarometerVisibility
10:00 AM
Oct 2
66 °FPartly sunny.2 mph51%30.36 "Hg6 mi
9:00 AM66 °FPartly sunny.1 mph51%30.34 "Hg6 mi
8:00 AM64 °FScattered clouds.1 mph55%30.32 "Hg6 mi
7:00 AM64 °FClear.1 mph56%30.31 "Hg6 mi
6:00 AM64 °FClear.1 mph51%30.31 "Hg6 mi
5:00 AM64 °FClear.2 mph55%30.31 "Hg6 mi
4:00 AM64 °FClear.1 mph64%30.31 "Hg6 mi
3:00 AM65 °FPassing clouds.1 mph62%30.31 "Hg6 mi
2:00 AM65 °FPassing clouds.2 mph66%30.30 "Hg6 mi
1:00 AM65 °FPassing clouds.2 mph71%30.30 "Hg6 mi
12:00 AM65 °FPassing clouds.3 mph74%30.30 "Hg6 mi
11:00 PM
Oct 1
65 °FPassing clouds.2 mph77%30.29 "Hg6 mi
10:00 PM65 °FPassing clouds.No wind77%30.29 "Hg6 mi
9:00 PM66 °FPassing clouds.1 mph74%30.27 "Hg6 mi
8:00 PM66 °FPassing clouds.2 mph76%30.26 "Hg6 mi
7:00 PM67 °FPassing clouds.1 mph75%30.24 "Hg6 mi
6:00 PM68 °FScattered clouds.1 mph76%30.24 "Hg6 mi
5:00 PM68 °FOvercast.2 mph72%30.23 "Hg6 mi
4:00 PM69 °FPartly sunny.1 mph70%30.23 "Hg6 mi
3:00 PM70 °FPartly sunny.1 mph62%30.23 "Hg6 mi
2:00 PM71 °FPassing clouds.1 mph66%30.23 "Hg6 mi
1:00 PM71 °FPassing clouds.1 mph57%30.24 "Hg6 mi
12:00 PM70 °FPassing clouds.2 mph53%30.23 "Hg6 mi
11:00 AM68 °FPassing clouds.1 mph57%30.23 "Hg6 mi
Weather by CustomWeather, © 2014

See weather overviewHow to use our weather pages